RH
82 85 87 90 97 96 94 95 94 90 86 83 82 82 78 73 75 75 74 82 88 86 82 83 82 79 78 79 79 80 79 76 77 83 86 87 86 85 85 86 84 90 92 74 65 67 64 64 61 58 57 57
88 87 89 95 98 98 95 92 89 86 84 82 79 78 78 77 76 76 81 88 87 82 78 76 76 74 74 77 78 77 80 81 81 87 90 90 87 88 89 86 87 91 86 75 72 69 66 66 64 64 63 65
93 90 92 98 98 97 93 87 86 84 82 81 78 75 76 78 77 78 85 89 85 80 74 71 71 70 74 79 81 82 88 92 89 91 93 93 90 91 90 86 89 87 80 79 78 75 74 72 71 72 69 73
97 95 96 99 97 94 89 85 84 81 79 79 77 76 77 79 79 83 89 88 83 77 72 75 75 76 83 85 86 88 92 94 92 94 95 95 95 94 90 89 92 83 79 81 79 78 78 75 74 75 75 78
100 98 98 99 94 91 87 85 82 78 76 76 77 77 77 80 84 90 91 86 81 75 70 79 84 84 86 83 84 88 89 90 91 95 97 98 96 91 85 87 90 84 81 82 79 78 76 74 74 76 79 81
100 99 99 98 92 90 86 83 78 74 74 75 77 77 76 80 88 93 90 84 78 71 70 83 89 85 82 83 88 90 92 93 92 96 99 97 90 79 77 79 79 79 82 82 81 79 76 74 74 77 81 84
99 99 99 96 91 88 83 78 74 72 72 73 76 76 76 81 88 91 87 80 74 68 73 86 87 82 83 88 94 95 98 98 96 100 97 90 80 71 72 72 72 77 80 81 83 81 79 77 77 79 81 85
99 99 96 92 89 85 79 74 71 71 71 72 75 75 77 82 88 88 82 75 69 68 77 86 86 87 90 94 98 98 99 99 99 98 90 82 75 69 69 68 70 77 79 78 79 81 82 81 81 81 82 86
100 98 93 89 87 82 75 72 71 71 71 72 74 74 77 83 86 84 78 72 67 73 83 87 90 96 98 99 100 99 99 98 96 90 81 78 74 69 68 66 67 74 79 77 76 77 80 83 84 84 85 88
99 96 91 88 84 79 74 71 71 71 71 72 73 74 77 79 83 82 77 71 68 78 88 90 96 99 100 100 100 99 96 95 91 82 76 76 75 70 68 66 67 73 77 76 75 75 76 80 83 86 88 89
97 93 89 86 82 78 75 72 72 72 70 71 74 75 75 75 78 80 78 71 68 80 91 94 100 100 99 99 99 97 92 90 87 79 72 73 75 71 68 68 69 73 75 75 74 73 73 75 80 85 88 89
93 90 87 85 81 77 76 74 72 72 71 72 75 75 75 74 75 75 76 73 69 80 93 97 100 99 97 96 96 95 89 87 85 78 71 70 74 72 70 69 69 71 73 75 74 72 73 73 75 80 84 87
93 90 87 83 80 78 77 75 73 72 73 73 74 74 72 72 74 71 71 75 71 78 92 97 100 97 95 94 93 92 88 85 82 78 72 69 73 73 71 70 70 70 69 71 73 73 74 74 73 74 79 84
95 92 88 83 80 77 76 75 73 72 72 73 73 72 69 68 71 66 65 75 74 76 89 96 97 95 93 92 91 89 86 84 79 75 71 68 72 74 72 71 71 70 69 68 68 70 69 69 69 69 72 80
96 92 88 84 80 76 74 74 73 71 68 69 72 70 69 68 69 65 62 73 76 75 85 94 95 93 92 91 88 86 85 83 78 74 69 67 72 75 73 71 72 71 70 68 66 67 67 64 64 64 65 73
94 91 89 85 80 77 74 73 71 70 67 68 72 72 71 69 69 69 65 70 78 76 80 89 93 92 91 89 86 85 85 83 79 73 67 69 74 75 73 72 72 72 71 70 67 65 65 64 61 61 62 68
91 90 91 88 83 79 77 74 71 72 71 69 73 74 72 70 70 71 68 69 77 77 76 84 90 92 91 88 87 87 87 84 81 75 67 72 79 75 73 73 71 72 71 71 71 67 64 64 61 59 60 63
91 89 88 90 89 85 79 74 72 73 73 70 73 74 72 71 70 72 70 69 73 72 73 82 86 88 88 87 88 87 87 84 83 80 67 68 78 76 73 73 71 71 72 71 71 71 68 66 63 60 58 55
93 91 89 89 89 86 81 76 73 73 72 71 71 73 74 71 69 70 67 67 72 69 71 79 80 81 81 82 84 83 84 82 81 81 72 65 71 76 73 72 72 70 71 71 71 71 71 70 67 64 61 55
94 92 89 86 82 82 82 78 75 73 72 72 69 71 74 71 68 67 63 67 74 72 72 74 73 75 77 77 79 78 77 78 74 75 75 66 64 72 75 72 72 71 70 71 70 70 71 71 71 69 67 63
95 92 88 86 82 80 80 79 79 76 74 73 71 72 74 70 67 62 60 68 73 73 74 74 73 74 74 74 75 74 73 72 72 69 69 66 62 68 75 73 71 70 70 70 70 71 71 71 70 70 70 68
96 94 90 88 85 84 83 82 81 80 78 75 73 73 71 67 64 61 62 68 70 71 74 76 76 75 73 72 71 72 71 70 71 65 58 61 65 68 72 73 72 70 69 70 70 71 71 71 70 68 68 68
96 95 93 91 88 88 88 86 84 82 80 76 74 72 69 66 64 64 65 67 68 68 71 74 74 73 72 72 71 70 70 68 65 55 47 54 63 67 70 71 71 69 67 68 68 69 69 69 69 67 66 65
96 95 94 93 91 90 89 89 87 84 81 78 76 72 69 68 67 67 67 68 68 67 66 68 69 70 70 70 70 69 68 64 58 49 45 51 60 67 71 69 68 67 65 63 61 61 60 60 61 61 59 59
92 93 93 92 91 91 89 89 88 86 84 82 80 76 73 71 70 69 68 69 69 68 67 66 68 68 68 68 68 66 64 59 55 49 44 51 63 69 67 63 63 61 59 56 49 46 45 44 44 44 44 44
89 89 89 88 87 87 87 86 87 87 86 84 82 80 77 74 73 72 70 69 68 69 69 69 70 68 67 67 65 64 60 57 54 48 43 50 63 67 63 61 59 55 52 47 42 40 38 37 35 33 33 32
93 90 89 88 86 84 85 83 82 85 86 86 85 84 81 78 76 75 72 70 68 68 67 68 68 68 67 64 63 61 59 57 54 47 39 39 52 58 57 57 54 52 51 45 40 37 36 42 42 37 35 34
97 95 93 91 89 87 86 84 82 82 85 86 86 86 84 80 77 75 73 71 68 67 66 66 65 65 66 63 61 60 58 57 54 48 36 29 42 51 49 50 48 46 47 44 39 36 40 44 39 34 35 36
99 99 97 95 94 92 89 87 85 83 82 84 86 86 84 80 76 74 74 72 71 70 68 66 64 63 64 64 63 61 59 57 53 49 38 26 32 40 39 40 41 40 39 38 34 30 34 35 37 48 43 32
99 99 100 99 97 95 93 91 89 85 82 81 82 84 84 82 77 75 75 75 74 73 70 67 65 65 65 64 64 62 61 58 53 48 41 30 24 26 28 30 34 36 34 35 30 22 20 20 32 50 43 32
99 98 99 100 99 98 96 95 93 89 86 83 82 81 80 81 80 79 78 79 78 76 72 69 69 70 69 68 66 64 62 59 55 48 42 35 26 21 24 25 27 30 31 34 32 24 18 15 18 25 29 36
Wind_Speed
34 34 32 30 29 30 29 29 28 26 25 23 22 20 19 18 16 16 17 17 18 18 17 17 16 16 16 15 14 14 14 14 16 17 18 18 18 19 20 18 16 16 20 25 27 26 26 25 24 23 24 24
33 33 32 32 30 30 31 31 30 27 25 24 22 20 18 18 17 17 18 18 18 18 17 16 16 15 15 15 15 15 17 17 18 18 18 19 19 20 19 17 17 19 21 25 26 25 25 24 25 24 25 25
32 33 33 34 33 32 33 32 31 28 27 26 22 19 19 18 18 19 19 19 18 18 18 17 17 17 16 17 18 17 18 19 19 19 19 20 20 19 17 17 18 20 22 23 24 24 24 24 25 25 26 26
31 32 33 34 35 34 34 33 32 30 29 27 23 21 22 22 21 21 20 20 19 19 19 19 19 19 19 20 19 18 18 19 19 19 19 20 19 18 20 20 19 20 21 22 23 24 24 24 25 25 26 26
32 33 34 35 36 35 34 34 33 31 29 27 25 25 25 24 24 23 22 22 22 21 19 19 21 20 19 20 19 18 18 19 19 19 20 19 18 20 23 22 21 22 22 21 22 22 23 23 24 25 26 26
34 35 36 37 36 36 35 35 34 32 30 28 27 27 26 25 25 24 24 24 23 22 20 20 19 19 20 19 19 19 18 19 19 19 19 18 20 22 23 22 22 22 22 21 21 20 20 22 23 24 25 26
36 38 39 38 37 37 35 34 34 32 30 29 29 28 26 26 26 25 25 24 22 21 22 20 18 18 21 20 19 20 20 20 21 19 18 20 22 22 22 22 21 21 22 21 21 20 19 20 22 22 23 25
38 41 42 41 39 38 36 33 32 31 30 29 29 28 26 26 26 25 25 24 22 23 23 21 20 20 21 21 22 23 23 22 21 20 20 22 23 22 21 21 21 21 21 20 20 20 19 20 20 21 22 22
41 42 44 44 41 39 36 34 32 32 30 29 29 28 27 27 26 25 25 23 22 25 24 22 22 23 24 25 26 25 25 24 21 21 22 22 22 22 21 20 19 21 21 20 19 19 19 19 18 19 20 20
42 41 43 43 41 39 37 35 35 33 31 29 28 29 28 27 25 25 25 23 24 26 24 23 24 25 26 27 27 25 24 23 21 21 22 21 22 21 20 20 19 20 21 21 19 19 18 18 18 17 18 19
41 41 41 41 41 39 38 36 34 33 31 29 29 29 28 27 26 25 25 25 25 26 24 24 25 26 27 27 26 24 23 22 20 21 22 22 22 20 19 20 18 19 21 21 20 19 17 17 17 16 16 17
42 41 40 40 40 39 37 35 34 33 32 30 30 30 28 27 26 25 25 26 26 25 25 24 25 27 27 26 24 22 22 21 19 20 22 22 22 20 18 18 17 18 19 20 21 20 18 17 16 16 15 16
42 41 41 40 39 38 37 35 35 35 33 32 31 29 27 26 26 26 26 27 26 25 25 24 25 27 26 25 23 21 19 19 19 20 22 22 22 20 17 17 17 16 17 19 20 20 19 17 16 15 14 14
37 38 39 40 40 40 37 35 36 36 33 32 31 29 27 26 26 26 26 28 27 25 26 24 24 26 26 24 23 20 18 18 18 20 22 22 23 22 18 16 16 16 17 17 18 19 19 17 15 15 14 13
34 35 35 37 39 41 39 37 37 36 33 31 30 29 28 26 26 26 26 28 29 27 26 25 25 25 25 24 21 19 19 19 19 19 21 22 23 23 20 17 16 16 17 17 17 18 18 17 16 15 15 14
36 34 33 35 38 40 40 40 39 35 34 31 30 31 30 28 27 26 26 28 30 28 27 26 26 26 24 23 21 20 21 21 20 18 20 22 23 23 22 18 16 15 16 17 17 17 18 18 17 16 16 16
39 36 32 33 36 39 39 40 39 36 34 31 31 33 32 29 28 27 26 28 30 28 27 27 26 26 24 24 23 22 22 22 21 19 20 23 23 22 21 20 17 16 15 17 18 17 18 18 18 17 16 16
38 38 36 32 31 35 38 39 38 37 34 31 31 33 32 30 27 26 26 28 29 27 28 28 27 26 25 24 24 23 22 22 22 21 21 23 24 21 21 20 19 18 16 17 17 17 18 18 19 18 17 16
33 35 37 33 29 32 35 37 37 35 33 31 31 32 31 29 27 26 27 28 29 27 28 29 27 26 24 24 24 23 23 22 22 22 21 24 25 22 20 20 20 19 18 17 17 17 17 18 18 19 18 17
27 30 33 33 31 31 32 34 35 34 33 31 31 31 31 29 26 27 28 29 29 28 29 29 27 26 25 24 24 24 23 22 21 22 22 24 27 26 23 21 20 20 20 19 18 17 17 17 18 18 19 19
21 25 29 31 32 32 32 32 32 33 33 32 31 31 31 29 28 28 29 30 30 29 29 29 28 28 26 25 25 25 24 23 21 21 22 24 26 27 25 23 22 21 20 20 19 19 18 17 18 18 19 19
16 20 25 29 30 30 30 29 30 30 31 32 31 31 31 30 30 30 30 31 30 30 30 30 29 29 28 27 26 26 25 23 21 20 22 25 26 26 26 25 24 23 21 20 20 19 19 19 19 18 19 19
13 16 19 24 27 26 24 23 26 28 28 29 31 32 32 31 32 32 32 32 31 30 30 30 30 29 29 29 28 27 26 24 22 21 22 25 26 25 24 24 24 24 21 19 19 19 19 19 19 19 19 20
11 12 13 16 21 22 19 17 20 24 26 26 28 30 31 32 33 33 33 34 33 31 31 31 31 30 30 30 29 28 27 25 24 23 23 25 27 26 23 23 23 23 21 19 17 17 17 17 17 19 19 20
9 9 8 9 12 16 17 15 15 19 22 23 24 25 27 30 32 33 34 34 34 33 32 31 31 31 31 30 30 29 27 26 24 23 24 25 27 27 25 24 23 23 22 19 14 12 14 16 16 16 18 20
7 9 9 9 9 12 16 16 14 16 19 21 22 23 25 26 29 31 32 33 33 33 32 32 32 32 32 31 30 28 26 25 24 24 25 27 28 27 27 26 25 25 23 18 15 11 7 8 13 16 18 20
3 7 10 12 13 15 16 17 18 18 18 20 22 23 24 24 25 27 29 31 32 32 31 31 31 31 31 31 30 29 28 27 26 26 27 29 30 28 27 25 25 28 26 20 16 10 4 3 5 9 16 21
4 4 7 10 12 14 15 17 20 20 18 19 21 21 22 23 22 24 26 28 29 30 30 30 30 30 31 31 30 29 29 29 28 28 29 31 32 31 28 25 26 29 30 26 19 10 2 2 2 3 8 16
8 6 6 7 9 11 13 13 16 19 19 19 21 21 22 23 23 23 25 26 28 28 29 29 29 30 30 30 30 30 29 29 29 30 30 31 33 34 32 29 27 29 32 31 27 18 6 3 2 4 4 6
10 8 7 7 7 9 11 13 15 18 21 22 23 22 22 24 25 25 25 26 27 27 28 28 29 30 30 30 30 29 28 28 29 30 31 32 33 34 34 31 27 29 34 33 31 28 18 7 3 3 4 3
11 10 10 9 9 8 9 12 14 17 19 22 23 23 23 23 23 23 24 25 26 26 27 28 29 29 29 30 30 29 29 29 30 30 31 32 33 33 33 32 29 31 34 32 30 33 29 19 10 5 5 4
Wind_Direction
175 174 172 170 166 164 162 159 154 151 149 148 149 145 145 145 139 143 150 149 147 145 146 149 149 151 155 153 154 157 161 164 159 155 152 149 147 146 142 136 134 135 136 141 146 145 145 145 144 144 142 140
177 174 169 166 164 163 159 155 152 150 149 148 153 151 142 141 144 148 151 149 146 146 150 155 156 156 158 159 158 157 157 158 156 153 149 145 144 143 138 133 132 135 139 141 143 143 144 145 144 144 141 137
174 171 167 164 163 161 156 152 151 151 149 148 154 156 148 145 148 151 152 147 146 148 151 154 158 158 158 158 156 156 153 151 151 148 144 139 138 136 134 135 133 136 142 142 142 143 144 143 143 141 138 136
171 169 165 162 160 157 153 150 151 152 152 152 154 154 151 152 153 153 149 146 147 147 149 153 155 156 153 151 150 150 148 146 146 143 142 137 133 132 133 135 130 135 144 143 143 144 144 144 143 140 137 137
170 168 164 159 156 154 152 151 151 152 152 153 154 154 156 157 156 153 148 147 150 147 151 154 152 152 150 149 148 147 147 146 144 142 142 137 135 138 139 138 132 135 143 145 145 144 145 145 144 141 139 139
168 164 159 154 153 153 154 155 155 155 154 154 156 158 160 160 156 152 150 150 150 149 154 153 150 155 155 153 150 150 150 146 146 144 141 140 143 145 144 142 139 139 142 144 145 144 146 146 145 144 142 141
166 159 154 152 153 154 155 155 155 156 156 157 159 161 162 160 157 155 154 153 152 154 157 155 157 165 161 156 151 151 148 143 142 140 140 146 148 148 145 141 140 144 145 144 144 145 146 146 146 147 146 145
163 157 155 156 157 157 156 155 155 157 159 160 161 164 165 162 159 158 157 156 157 159 160 161 162 163 159 154 150 149 145 140 140 140 144 151 151 148 146 141 139 145 148 147 146 147 147 147 148 150 150 149
159 157 157 158 160 160 159 159 160 161 161 161 164 168 167 163 162 161 159 159 161 163 163 165 162 159 156 153 151 149 145 141 144 148 150 154 154 149 144 140 141 146 148 150 150 148 149 150 153 153 154 155
158 157 157 158 161 161 161 161 160 160 162 163 167 169 167 164 164 164 163 163 165 167 168 166 162 159 158 155 153 153 151 149 151 154 154 159 158 151 145 138 140 148 149 151 151 149 150 153 158 159 159 159
160 159 160 161 163 163 162 161 159 160 161 165 170 169 168 168 168 168 167 167 170 172 172 168 162 159 160 157 156 159 159 158 159 158 157 163 164 157 150 140 138 146 148 151 153 152 153 155 159 162 163 163
164 163 164 164 164 164 163 162 162 163 163 167 171 170 170 172 173 173 171 170 173 175 174 170 163 160 162 162 161 163 166 166 164 164 163 166 168 164 156 149 145 146 147 150 153 153 156 160 162 164 165 165
166 166 167 166 165 164 163 162 162 164 165 167 171 171 172 175 175 176 175 174 175 176 176 173 167 164 165 166 166 167 171 172 169 169 169 169 172 170 162 157 155 152 151 151 154 155 156 161 165 168 169 169
166 168 168 167 167 166 164 163 163 164 165 168 171 173 174 177 178 177 177 178 178 179 177 175 172 169 170 171 172 175 177 177 174 172 173 175 175 174 167 161 160 160 158 156 158 160 160 164 168 172 176 175
166 169 169 169 168 166 165 166 167 166 166 171 176 177 178 178 179 179 180 181 181 181 179 178 176 174 174 174 177 185 184 178 177 175 176 180 179 178 174 164 161 164 163 160 163 166 167 170 176 182 186 186
168 171 173 171 169 167 168 169 169 169 169 173 179 181 181 180 181 182 182 183 183 185 183 181 180 179 179 182 186 191 187 179 178 178 179 183 180 179 179 172 167 167 168 165 165 170 173 175 182 189 193 194
171 174 175 173 172 170 170 169 169 172 172 173 178 182 182 181 182 183 184 184 184 187 189 186 184 184 186 189 190 189 187 184 182 182 183 184 181 180 182 180 175 173 172 171 169 172 176 177 182 189 193 197
174 176 176 176 175 172 170 170 171 173 173 174 177 181 183 182 183 185 187 186 185 188 191 191 189 189 189 190 190 188 190 190 187 187 188 188 186 185 186 186 184 183 180 177 175 176 178 179 183 188 193 197
176 176 176 176 176 172 171 172 174 174 176 177 177 181 184 183 185 188 189 190 189 188 189 191 192 193 193 191 192 191 192 195 194 193 194 195 194 190 190 191 190 190 190 186 185 184 183 185 186 190 196 200
177 174 175 175 177 177 175 175 176 177 179 180 180 185 186 186 189 190 190 192 193 190 188 191 193 194 195 195 194 194 194 196 199 198 197 200 201 196 192 193 192 194 197 196 195 195 194 195 195 196 199 205
178 175 175 176 178 180 181 180 178 177 179 182 185 188 188 188 191 193 193 194 195 193 191 193 193 194 196 196 195 195 196 198 202 203 200 199 202 200 195 194 194 194 198 201 202 204 205 205 206 206 206 209
175 175 176 176 178 181 183 183 182 179 179 183 188 191 191 191 192 193 193 194 196 196 195 195 195 194 195 196 195 196 197 199 202 205 203 199 199 202 201 198 198 197 198 201 204 207 210 212 212 214 216 217
172 174 174 175 177 181 184 187 186 183 183 186 188 192 195 194 193 193 193 195 197 197 196 196 196 196 196 196 196 197 198 199 199 200 200 199 197 200 204 204 202 201 198 199 204 208 211 216 219 220 222 224
171 171 171 172 173 178 184 190 191 188 189 190 191 194 195 196 195 195 196 197 198 198 197 197 197 196 196 197 198 198 199 199 199 197 194 195 194 193 198 203 204 202 199 196 198 206 211 217 223 228 229 230
180 177 175 170 168 173 179 186 189 190 193 195 196 196 196 197 197 198 199 199 199 199 199 198 197 197 197 199 201 203 204 203 201 198 194 193 193 193 193 195 199 200 197 190 188 197 211 218 223 230 235 237
197 195 197 197 193 188 186 188 190 190 192 197 200 201 202 201 201 202 202 202 201 201 202 201 199 200 200 201 203 204 205 204 201 198 197 194 192 195 196 196 197 196 193 188 187 184 193 224 232 234 237 240
212 199 200 204 208 206 199 197 200 199 195 197 199 202 204 204 204 205 205 205 205 205 206 207 205 204 204 204 204 205 203 202 203 201 200 199 196 193 195 200 200 199 198 193 180 169 178 220 233 243 238 237
304 236 214 209 210 212 206 202 204 206 205 202 201 203 205 205 205 206 207 208 208 209 210 211 211 209 208 207 207 208 206 203 204 204 202 201 200 195 191 196 201 202 204 201 186 164 144 165 161 265 234 226
327 294 256 229 216 214 211 208 207 209 213 211 206 204 203 204 206 205 208 209 210 212 212 212 213 213 212 211 209 211 211 209 208 208 206 203 202 201 197 196 198 200 203 207 205 194 171 117 184 251 205 202
341 319 297 263 235 219 213 213 215 215 219 220 217 210 204 205 205 204 206 207 210 212 213 213 213 214 216 215 214 214 216 216 214 211 210 207 205 207 207 202 197 198 202 207 212 211 212 213 211 212 158 146
354 335 318 297 273 255 239 230 229 227 226 226 224 218 214 213 212 210 207 207 209 210 211 213 214 216 218 221 221 219 219 220 219 217 215 212 211 211 210 206 201 202 202 204 212 217 221 230 236 222 172 177